Riverside, CA

3:29 PM PST on February 09, 2016 (GMT -0800)
March Air Reserve Base

Weather History for KRIV - May, 2013

Change the Weather History Date:

Monday, May 6, 2013

  Actual Average Record
Temperature  
Mean Temperature 58 °F -  
Max Temperature 63 °F 76 °F 89 °F (1997)
Min Temperature 53 °F 49 °F 43 °F (2011)
Degree Days  
Heating Degree Days 7    
Growing Degree Days 8 (Base 50)    
Moisture  
Dew Point 53 °F    
Average Humidity 90    
Maximum Humidity 100    
Minimum Humidity 59    
Precipitation  
Precipitation 0.15 in - - ()
Sea Level Pressure  
Sea Level Pressure 29.97 in    
Wind  
Wind Speed 8 mph (SE)    
Max Wind Speed 15 mph    
Max Gust Speed -    
Visibility 8 miles    
Events Rain    
Averages and records for this station are not official NWS values.
T = Trace of Precipitation, MM = Missing Value Source: NWS Daily Summary

Daily Weather History Graph

Daily Weather History Graph

Search for Another Location

Airport or City:

Trip Planner

Search our weather history database for the weather conditions in past years. The results will help you decide how hot, cold, wet, or windy it might be!

Date:

Astronomy

May. 06, 2013 Rise Set
Actual Time 5:54 AM PDT 7:36 PM PDT
Civil Twilight 5:27 AM PDT 8:03 PM PDT
Nautical Twilight 4:55 AM PDT 8:36 PM PDT
Astronomical Twilight 4:21 AM PDT 9:10 PM PDT
Moon 3:50 AM PDT (5/6) 4:48 PM PDT (5/6)
Length of Visible Light 14h 35m
Length of Day
13h 41m
Waning Crescent, 10% of the Moon is Illuminated
May 6
Waning Crescent
May 9
New
May 17
First Quarter
May 24
Full
May 31
Last Quarter

Hourly Weather History & Observations

Time (PDT) Temp. Dew Point Humidity Pressure Visibility Wind Dir Wind Speed Gust Speed Precip Events Conditions
12:08 AM 53.6 °F 51.8 °F 94% 29.97 in 6.0 mi SSE 8.1 mph - N/A   Light Drizzle
12:21 AM 53.6 °F 51.8 °F 94% 29.96 in 6.0 mi SSE 3.5 mph - N/A   Overcast
12:26 AM 53.6 °F 51.8 °F 94% 29.96 in 7.0 mi SSE 3.5 mph - N/A   Overcast
12:58 AM 53.4 °F 52.5 °F 97% 29.94 in 10.0 mi SSE 6.9 mph - 0.00 in   Overcast
1:08 AM 53.6 °F 51.8 °F 94% 29.96 in 10.0 mi SSE 5.8 mph - N/A   Overcast
1:14 AM 53.6 °F 53.6 °F 100% 29.96 in 10.0 mi SSE 6.9 mph - N/A   Overcast
1:58 AM 53.2 °F 53.2 °F 100% 29.92 in 10.0 mi SSE 6.9 mph - N/A   Overcast
2:18 AM 53.6 °F 53.6 °F 100% 29.94 in 10.0 mi SSE 8.1 mph - N/A   Overcast
2:23 AM 53.6 °F 53.6 °F 100% 29.94 in 10.0 mi SSE 9.2 mph - N/A   Overcast
2:54 AM 53.6 °F 53.6 °F 100% 29.94 in 10.0 mi SE 9.2 mph - N/A   Overcast
2:58 AM 53.4 °F 53.4 °F 100% 29.92 in 10.0 mi SE 8.1 mph - N/A   Overcast
3:03 AM 53.6 °F 53.6 °F 100% 29.94 in 9.0 mi SE 5.8 mph - N/A   Overcast
3:13 AM 53.6 °F 53.6 °F 100% 29.94 in 10.0 mi SE 5.8 mph - N/A   Overcast
3:39 AM 53.6 °F 53.6 °F 100% 29.93 in 8.0 mi ESE 8.1 mph - N/A   Light Drizzle
3:50 AM 53.6 °F 53.6 °F 100% 29.93 in 9.0 mi ESE 6.9 mph - N/A   Overcast
3:58 AM 53.2 °F 53.2 °F 100% 29.91 in 10.0 mi ESE 6.9 mph - 0.00 in   Overcast
4:03 AM 53.6 °F 53.6 °F 100% 29.93 in 10.0 mi SE 6.9 mph - N/A   Overcast
4:38 AM 53.6 °F 53.6 °F 100% 29.93 in 10.0 mi SE 8.1 mph - N/A   Overcast
4:52 AM 53.6 °F 53.6 °F 100% 29.93 in 6.0 mi SE 9.2 mph - N/A   Light Drizzle
4:58 AM 53.6 °F 53.6 °F 100% 29.92 in 6.0 mi SE 10.4 mph - 0.00 in   Light Drizzle
5:06 AM 53.6 °F 53.6 °F 100% 29.93 in 8.0 mi ESE 9.2 mph - N/A   Overcast
5:41 AM 53.6 °F 53.6 °F 100% 29.93 in 2.5 mi SE 9.2 mph - N/A Rain Light Rain
5:46 AM 53.6 °F 53.6 °F 100% 29.93 in 3.0 mi SE 11.5 mph - N/A Rain Light Rain
5:58 AM 54.0 °F 54.0 °F 100% 29.92 in 4.0 mi ESE 11.5 mph - 0.05 in Rain Light Rain
6:37 AM 53.6 °F 53.6 °F 100% 29.94 in 4.0 mi SE 12.7 mph - N/A   Mostly Cloudy
6:45 AM 53.6 °F 53.6 °F 100% 29.95 in 10.0 mi SSE 11.5 mph - N/A   Mostly Cloudy
6:58 AM 54.1 °F 54.1 °F 100% 29.95 in 10.0 mi South 10.4 mph - 0.02 in   Mostly Cloudy
7:58 AM 55.0 °F 55.0 °F 100% 29.97 in 10.0 mi ESE 10.4 mph - N/A   Mostly Cloudy
8:13 AM 55.4 °F 55.4 °F 100% 29.98 in 10.0 mi ESE 11.5 mph - N/A   Mostly Cloudy
8:26 AM 55.4 °F 55.4 °F 100% 29.98 in 10.0 mi ESE 8.1 mph - N/A   Mostly Cloudy
8:58 AM 56.5 °F 56.5 °F 100% 29.97 in 10.0 mi East 5.8 mph - N/A   Mostly Cloudy
9:58 AM 58.3 °F 55.4 °F 90% 29.98 in 10.0 mi ESE 12.7 mph - N/A   Mostly Cloudy
10:13 AM 57.2 °F 55.4 °F 94% 29.99 in 6.0 mi SE 12.7 mph - N/A Rain Light Rain
10:23 AM 57.2 °F 55.4 °F 94% 29.99 in 3.0 mi SE 11.5 mph - N/A Rain Light Rain
10:47 AM 57.2 °F 57.2 °F 100% 30.00 in 10.0 mi South 6.9 mph - N/A   Mostly Cloudy
10:58 AM 57.4 °F 55.2 °F 92% 29.99 in 10.0 mi South 8.1 mph - 0.03 in   Mostly Cloudy
11:58 AM 63.1 °F 55.0 °F 75% 29.99 in 10.0 mi SSE 11.5 mph - N/A   Mostly Cloudy
12:08 PM 62.6 °F 55.4 °F 77% 29.99 in 10.0 mi ESE 15.0 mph - N/A   Overcast
12:48 PM 60.8 °F 53.6 °F 77% 29.99 in 10.0 mi SE 10.4 mph - N/A   Overcast
12:58 PM 61.2 °F 53.6 °F 76% 29.97 in 10.0 mi SE 3.5 mph - N/A   Overcast
1:20 PM 60.8 °F 53.6 °F 77% 29.99 in 4.0 mi NW 8.1 mph - N/A Rain Light Rain
1:22 PM 60.8 °F 55.4 °F 82% 29.99 in 3.0 mi NW 9.2 mph - N/A Rain Rain
1:33 PM 59.0 °F 55.4 °F 88% 29.99 in 7.0 mi NW 6.9 mph - N/A Rain Light Rain
1:48 PM 59.0 °F 53.6 °F 82% 29.99 in 5.0 mi West 8.1 mph - N/A Rain Light Rain
1:58 PM 58.3 °F 55.0 °F 89% 29.99 in 5.0 mi West 8.1 mph - 0.04 in Rain Light Rain
2:11 PM 59.0 °F 55.4 °F 88% 30.00 in 7.0 mi West 8.1 mph - N/A Rain Light Rain
2:46 PM 59.0 °F 57.2 °F 94% 29.99 in 10.0 mi Variable 2.3 mph - N/A   Mostly Cloudy
2:58 PM 60.1 °F 55.9 °F 86% 29.98 in 10.0 mi Calm Calm - 0.01 in   Mostly Cloudy
3:31 PM 60.8 °F 53.6 °F 77% 29.98 in 10.0 mi South 11.5 mph - N/A   Mostly Cloudy
3:58 PM 61.9 °F 52.7 °F 72% 29.97 in 10.0 mi South 12.7 mph - N/A   Mostly Cloudy
4:15 PM 62.6 °F 51.8 °F 68% 29.97 in 10.0 mi SSW 12.7 mph - N/A   Mostly Cloudy
4:58 PM 61.7 °F 50.4 °F 66% 29.97 in 10.0 mi South 12.7 mph - N/A   Mostly Cloudy
5:58 PM 60.8 °F 46.6 °F 59% 29.97 in 10.0 mi South 12.7 mph - N/A   Mostly Cloudy
6:58 PM 59.7 °F 47.8 °F 65% 29.97 in 10.0 mi South 9.2 mph - N/A   Mostly Cloudy
7:58 PM 56.5 °F 47.3 °F 71% 29.98 in 10.0 mi South 8.1 mph - N/A   Scattered Clouds
8:58 PM 55.8 °F 49.6 °F 80% 30.00 in 10.0 mi SE 4.6 mph - N/A   Mostly Cloudy
9:58 PM 55.4 °F 49.6 °F 81% 30.02 in 10.0 mi SE 6.9 mph - N/A   Overcast
10:08 PM 55.4 °F 50.0 °F 82% 30.02 in 10.0 mi SE 6.9 mph - N/A   Overcast
10:18 PM 55.4 °F 50.0 °F 82% 30.03 in 10.0 mi SE 8.1 mph - N/A   Overcast
10:58 PM 55.2 °F 49.3 °F 80% 30.02 in 10.0 mi SE 8.1 mph - N/A   Overcast
11:58 PM 55.0 °F 50.7 °F 85% 30.02 in 10.0 mi SE 6.9 mph - N/A   Overcast